Time,TemperatureF,DewpointF,PressureIn,WindDirection,WindDirectionDegrees,WindSpeedMPH,WindSpeedGustMPH,Humidity,HourlyPrecipIn,Conditions,Clouds,dailyrainin,SoftwareType,DateUTC
2013-01-21 00:03:00,38.9,31.0,29.81,North,0,0.0,0.0,73,0.00,,,0.00,WUHU216HW,2013-01-21 08:03:00,
2013-01-21 00:08:00,38.7,30.8,29.82,North,0,0.0,0.0,73,0.00,,,0.00,WUHU216HW,2013-01-21 08:08:00,
2013-01-21 00:13:00,38.7,30.8,29.81,North,0,0.0,0.0,73,0.00,,,0.00,WUHU216HW,2013-01-21 08:13:00,
2013-01-21 00:18:00,38.5,31.0,29.81,North,0,0.0,0.0,74,0.00,,,0.00,WUHU216HW,2013-01-21 08:18:00,
2013-01-21 00:23:00,38.5,31.0,29.81,North,0,0.0,0.0,74,0.00,,,0.00,WUHU216HW,2013-01-21 08:23:00,
2013-01-21 00:28:00,38.3,30.8,29.81,North,0,0.0,0.0,74,0.00,,,0.00,WUHU216HW,2013-01-21 08:28:00,
2013-01-21 00:33:00,38.2,30.6,29.80,North,0,0.0,0.0,74,0.00,,,0.00,WUHU216HW,2013-01-21 08:33:00,
2013-01-21 00:38:00,38.0,30.4,29.80,North,0,0.0,0.0,74,0.00,,,0.00,WUHU216HW,2013-01-21 08:38:00,
2013-01-21 00:43:00,38.0,30.8,29.80,North,0,0.0,0.0,75,0.00,,,0.00,WUHU216HW,2013-01-21 08:43:00,
2013-01-21 00:48:00,38.0,30.8,29.80,North,0,0.0,0.0,75,0.00,,,0.00,WUHU216HW,2013-01-21 08:48:00,
2013-01-21 00:53:00,37.8,30.6,29.80,North,0,0.0,0.0,75,0.00,,,0.00,WUHU216HW,2013-01-21 08:53:00,
2013-01-21 00:58:00,37.8,30.9,29.80,North,0,0.0,0.0,76,0.00,,,0.00,WUHU216HW,2013-01-21 08:58:00,
2013-01-21 01:03:00,37.8,30.9,29.80,North,0,0.0,0.0,76,0.00,,,0.00,WUHU216HW,2013-01-21 09:03:00,
2013-01-21 01:08:00,37.8,30.9,29.80,North,0,0.0,0.0,76,0.00,,,0.00,WUHU216HW,2013-01-21 09:08:00,
2013-01-21 01:13:00,37.8,31.2,29.80,North,0,0.0,0.0,77,0.00,,,0.00,WUHU216HW,2013-01-21 09:13:00,
2013-01-21 01:18:00,37.8,31.2,29.80,North,0,0.0,0.0,77,0.00,,,0.00,WUHU216HW,2013-01-21 09:18:00,
2013-01-21 01:24:00,37.8,30.9,29.80,North,0,0.0,0.0,76,0.00,,,0.00,WUHU216HW,2013-01-21 09:24:00,
2013-01-21 01:29:00,37.8,30.9,29.80,North,0,0.0,0.0,76,0.00,,,0.00,WUHU216HW,2013-01-21 09:29:00,
2013-01-21 01:34:00,37.8,30.9,29.81,North,0,0.0,0.0,76,0.00,,,0.00,WUHU216HW,2013-01-21 09:34:00,
2013-01-21 01:39:00,37.6,31.1,29.80,North,0,0.0,0.0,77,0.00,,,0.00,WUHU216HW,2013-01-21 09:39:00,
2013-01-21 01:44:00,37.4,30.6,29.81,North,0,0.0,0.0,76,0.00,,,0.00,WUHU216HW,2013-01-21 09:44:00,
2013-01-21 01:49:00,37.4,30.6,29.81,North,0,0.0,0.0,76,0.00,,,0.00,WUHU216HW,2013-01-21 09:49:00,
2013-01-21 01:54:00,37.3,30.4,29.81,North,0,0.0,0.0,76,0.00,,,0.00,WUHU216HW,2013-01-21 09:54:00,
2013-01-21 01:59:00,37.1,30.3,29.81,North,0,0.0,0.0,76,0.00,,,0.00,WUHU216HW,2013-01-21 09:59:00,
2013-01-21 02:04:00,37.1,30.3,29.81,North,0,0.0,0.0,76,0.00,,,0.00,WUHU216HW,2013-01-21 10:04:00,
2013-01-21 02:09:00,36.9,30.1,29.82,North,0,0.0,0.0,76,0.00,,,0.00,WUHU216HW,2013-01-21 10:09:00,
2013-01-21 02:14:00,36.7,30.2,29.81,North,0,0.0,0.0,77,0.00,,,0.00,WUHU216HW,2013-01-21 10:14:00,
2013-01-21 02:19:00,36.5,30.0,29.81,North,0,0.0,0.0,77,0.00,,,0.00,WUHU216HW,2013-01-21 10:19:00,
2013-01-21 02:24:00,36.5,30.0,29.81,North,0,0.0,0.0,77,0.00,,,0.00,WUHU216HW,2013-01-21 10:24:00,
2013-01-21 02:29:00,36.4,30.2,29.80,North,0,0.0,0.0,78,0.00,,,0.00,WUHU216HW,2013-01-21 10:29:00,
2013-01-21 02:35:00,36.4,30.2,29.80,North,0,0.0,0.0,78,0.00,,,0.00,WUHU216HW,2013-01-21 10:35:00,
2013-01-21 02:40:00,36.5,30.3,29.80,North,0,0.0,0.0,78,0.00,,,0.00,WUHU216HW,2013-01-21 10:40:00,
2013-01-21 02:45:00,36.5,30.3,29.80,North,0,0.0,0.0,78,0.00,,,0.00,WUHU216HW,2013-01-21 10:45:00,
2013-01-21 02:50:00,36.5,30.3,29.80,North,0,0.0,0.0,78,0.00,,,0.00,WUHU216HW,2013-01-21 10:50:00,
2013-01-21 02:55:00,36.4,30.2,29.80,North,0,0.0,0.0,78,0.00,,,0.00,WUHU216HW,2013-01-21 10:55:00,
2013-01-21 03:00:00,36.2,30.0,29.80,North,0,0.0,0.0,78,0.00,,,0.00,WUHU216HW,2013-01-21 11:00:00,
2013-01-21 03:05:00,36.0,29.8,29.80,North,0,0.0,0.0,78,0.00,,,0.00,WUHU216HW,2013-01-21 11:05:00,
2013-01-21 03:10:00,36.0,30.1,29.80,North,0,0.0,0.0,79,0.00,,,0.00,WUHU216HW,2013-01-21 11:10:00,
2013-01-21 03:15:00,36.0,30.1,29.80,North,0,0.0,0.0,79,0.00,,,0.00,WUHU216HW,2013-01-21 11:15:00,
2013-01-21 03:20:00,36.0,30.1,29.80,North,0,0.0,0.0,79,0.00,,,0.00,WUHU216HW,2013-01-21 11:20:00,
2013-01-21 03:25:00,35.8,29.9,29.79,North,0,0.0,0.0,79,0.00,,,0.00,WUHU216HW,2013-01-21 11:25:00,
2013-01-21 03:30:00,35.8,29.9,29.79,North,0,0.0,0.0,79,0.00,,,0.00,WUHU216HW,2013-01-21 11:30:00,
2013-01-21 03:35:00,35.6,29.7,29.79,North,0,0.0,0.0,79,0.00,,,0.00,WUHU216HW,2013-01-21 11:35:00,
2013-01-21 03:40:00,35.6,30.1,29.79,North,0,0.0,0.0,80,0.00,,,0.00,WUHU216HW,2013-01-21 11:40:00,
2013-01-21 03:45:00,35.6,30.1,29.79,North,0,0.0,0.0,80,0.00,,,0.00,WUHU216HW,2013-01-21 11:45:00,
2013-01-21 03:50:00,35.6,30.1,29.79,North,0,0.0,0.0,80,0.00,,,0.00,WUHU216HW,2013-01-21 11:50:00,
2013-01-21 03:55:00,35.6,30.1,29.79,North,0,0.0,0.0,80,0.00,,,0.00,WUHU216HW,2013-01-21 11:55:00,
2013-01-21 04:00:00,35.6,30.1,29.79,North,0,0.0,0.0,80,0.00,,,0.00,WUHU216HW,2013-01-21 12:00:00,
2013-01-21 04:05:00,35.5,29.9,29.79,North,0,0.0,0.0,80,0.00,,,0.00,WUHU216HW,2013-01-21 12:05:00,
2013-01-21 04:11:00,35.3,29.7,29.79,North,0,0.0,0.0,80,0.00,,,0.00,WUHU216HW,2013-01-21 12:11:00,
2013-01-21 04:16:00,35.1,29.5,29.80,North,0,0.0,0.0,80,0.00,,,0.00,WUHU216HW,2013-01-21 12:16:00,
2013-01-21 04:21:00,34.9,29.3,29.80,North,0,0.0,0.0,80,0.00,,,0.00,WUHU216HW,2013-01-21 12:21:00,
2013-01-21 04:26:00,34.9,29.3,29.79,North,0,0.0,0.0,80,0.00,,,0.00,WUHU216HW,2013-01-21 12:26:00,
2013-01-21 04:31:00,34.7,29.4,29.79,North,0,0.0,0.0,81,0.00,,,0.00,WUHU216HW,2013-01-21 12:31:00,
2013-01-21 04:36:00,34.6,29.3,29.79,North,0,0.0,0.0,81,0.00,,,0.00,WUHU216HW,2013-01-21 12:36:00,
2013-01-21 04:41:00,34.6,29.3,29.79,North,0,0.0,0.0,81,0.00,,,0.00,WUHU216HW,2013-01-21 12:41:00,
2013-01-21 04:46:00,34.6,29.3,29.79,North,0,0.0,0.0,81,0.00,,,0.00,WUHU216HW,2013-01-21 12:46:00,
2013-01-21 04:51:00,34.4,29.3,29.79,North,0,0.0,0.0,82,0.00,,,0.00,WUHU216HW,2013-01-21 12:51:00,
2013-01-21 04:56:00,34.2,29.2,29.79,North,0,0.0,0.0,82,0.00,,,0.00,WUHU216HW,2013-01-21 12:56:00,
2013-01-21 05:02:00,34.4,29.3,29.79,North,0,0.0,0.0,82,0.00,,,0.00,WUHU216HW,2013-01-21 13:02:00,
2013-01-21 05:07:00,34.4,29.7,29.79,North,0,0.0,0.0,83,0.00,,,0.00,WUHU216HW,2013-01-21 13:07:00,
2013-01-21 05:12:00,34.6,29.9,29.79,North,0,0.0,0.0,83,0.00,,,0.00,WUHU216HW,2013-01-21 13:12:00,
2013-01-21 05:17:00,34.6,29.9,29.79,North,0,0.0,0.0,83,0.00,,,0.00,WUHU216HW,2013-01-21 13:17:00,
2013-01-21 05:22:00,34.6,29.9,29.79,North,0,0.0,0.0,83,0.00,,,0.00,WUHU216HW,2013-01-21 13:22:00,
2013-01-21 05:27:00,34.4,29.3,29.79,North,0,0.0,0.0,82,0.00,,,0.00,WUHU216HW,2013-01-21 13:27:00,
2013-01-21 05:32:00,34.2,29.2,29.79,North,0,0.0,0.0,82,0.00,,,0.00,WUHU216HW,2013-01-21 13:32:00,
2013-01-21 05:37:00,34.2,29.2,29.79,North,0,0.0,0.0,82,0.00,,,0.00,WUHU216HW,2013-01-21 13:37:00,
2013-01-21 05:42:00,34.0,29.4,29.79,North,0,0.0,0.0,83,0.00,,,0.00,WUHU216HW,2013-01-21 13:42:00,
2013-01-21 05:47:00,34.0,29.4,29.79,North,0,0.0,0.0,83,0.00,,,0.00,WUHU216HW,2013-01-21 13:47:00,
2013-01-21 05:52:00,34.0,29.4,29.79,North,0,0.0,0.0,83,0.00,,,0.00,WUHU216HW,2013-01-21 13:52:00,
2013-01-21 05:57:00,33.8,28.8,29.79,North,0,0.0,0.0,82,0.00,,,0.00,WUHU216HW,2013-01-21 13:57:00,
2013-01-21 06:02:00,33.8,28.8,29.79,North,0,0.0,0.0,82,0.00,,,0.00,WUHU216HW,2013-01-21 14:02:00,
2013-01-21 06:07:00,33.8,28.8,29.79,North,0,0.0,0.0,82,0.00,,,0.00,WUHU216HW,2013-01-21 14:07:00,
2013-01-21 06:12:00,33.7,29.0,29.79,North,0,0.0,0.0,83,0.00,,,0.00,WUHU216HW,2013-01-21 14:12:00,
2013-01-21 06:17:00,33.7,29.0,29.79,North,0,0.0,0.0,83,0.00,,,0.00,WUHU216HW,2013-01-21 14:17:00,
2013-01-21 06:22:00,33.7,29.0,29.79,North,0,0.0,0.0,83,0.00,,,0.00,WUHU216HW,2013-01-21 14:22:00,
2013-01-21 06:27:00,33.5,28.8,29.79,North,0,0.0,0.0,83,0.00,,,0.00,WUHU216HW,2013-01-21 14:27:00,
2013-01-21 06:32:00,33.5,28.8,29.78,North,0,0.0,0.0,83,0.00,,,0.00,WUHU216HW,2013-01-21 14:32:00,
2013-01-21 06:37:00,33.5,28.8,29.79,North,0,0.0,0.0,83,0.00,,,0.00,WUHU216HW,2013-01-21 14:37:00,
2013-01-21 06:42:00,33.5,28.8,29.79,North,0,0.0,0.0,83,0.00,,,0.00,WUHU216HW,2013-01-21 14:42:00,
2013-01-21 06:47:00,33.1,28.4,29.79,North,0,0.0,0.0,83,0.00,,,0.00,WUHU216HW,2013-01-21 14:47:00,
2013-01-21 06:52:00,33.1,28.4,29.79,North,0,0.0,0.0,83,0.00,,,0.00,WUHU216HW,2013-01-21 14:52:00,
2013-01-21 06:58:00,32.9,28.4,29.78,North,0,0.0,0.0,83,0.00,,,0.00,WUHU216HW,2013-01-21 14:58:00,
2013-01-21 07:03:00,32.9,28.4,29.79,North,0,0.0,0.0,83,0.00,,,0.00,WUHU216HW,2013-01-21 15:03:00,
2013-01-21 07:08:00,32.8,28.2,29.79,North,0,0.0,0.0,83,0.00,,,0.00,WUHU216HW,2013-01-21 15:08:00,
2013-01-21 07:13:00,32.8,28.2,29.79,North,0,0.0,0.0,83,0.00,,,0.00,WUHU216HW,2013-01-21 15:13:00,
2013-01-21 07:18:00,32.8,28.2,29.79,North,0,0.0,0.0,83,0.00,,,0.00,WUHU216HW,2013-01-21 15:18:00,
2013-01-21 07:23:00,32.6,28.0,29.79,North,0,0.0,0.0,83,0.00,,,0.00,WUHU216HW,2013-01-21 15:23:00,
2013-01-21 07:28:00,32.6,28.0,29.80,North,0,0.0,0.0,83,0.00,,,0.00,WUHU216HW,2013-01-21 15:28:00,
2013-01-21 07:33:00,32.4,27.8,29.80,North,0,0.0,0.0,83,0.00,,,0.00,WUHU216HW,2013-01-21 15:33:00,
2013-01-21 07:38:00,32.6,28.3,29.80,North,0,0.0,0.0,84,0.00,,,0.00,WUHU216HW,2013-01-21 15:38:00,
2013-01-21 07:43:00,32.6,28.3,29.80,North,0,0.0,0.0,84,0.00,,,0.00,WUHU216HW,2013-01-21 15:43:00,
2013-01-21 07:48:00,32.8,28.4,29.80,North,0,0.0,0.0,84,0.00,,,0.00,WUHU216HW,2013-01-21 15:48:00,
2013-01-21 07:53:00,32.8,28.4,29.80,North,0,0.0,0.0,84,0.00,,,0.00,WUHU216HW,2013-01-21 15:53:00,
2013-01-21 07:58:00,32.8,28.4,29.80,North,0,0.0,0.0,84,0.00,,,0.00,WUHU216HW,2013-01-21 15:58:00,
2013-01-21 08:03:00,32.9,28.9,29.80,North,0,0.0,0.0,85,0.00,,,0.00,WUHU216HW,2013-01-21 16:03:00,
2013-01-21 08:08:00,33.1,29.1,29.80,North,0,0.0,0.0,85,0.00,,,0.00,WUHU216HW,2013-01-21 16:08:00,
2013-01-21 08:14:00,33.3,29.3,29.80,North,0,0.0,0.0,85,0.00,,,0.00,WUHU216HW,2013-01-21 16:14:00,
2013-01-21 08:19:00,33.5,29.7,29.80,North,0,0.0,0.0,86,0.00,,,0.00,WUHU216HW,2013-01-21 16:19:00,
2013-01-21 08:24:00,33.8,30.0,29.80,North,0,0.0,0.0,86,0.00,,,0.00,WUHU216HW,2013-01-21 16:24:00,
2013-01-21 08:29:00,34.4,30.5,29.81,North,0,0.0,0.0,86,0.00,,,0.00,WUHU216HW,2013-01-21 16:29:00,
2013-01-21 08:34:00,34.9,31.3,29.81,North,0,0.0,0.0,87,0.00,,,0.00,WUHU216HW,2013-01-21 16:34:00,
2013-01-21 08:39:00,35.6,32.0,29.81,North,0,0.0,0.0,87,0.00,,,0.00,WUHU216HW,2013-01-21 16:39:00,
2013-01-21 08:44:00,36.5,33.3,29.82,North,0,0.0,0.0,88,0.00,,,0.00,WUHU216HW,2013-01-21 16:44:00,
2013-01-21 08:49:00,37.1,33.9,29.82,North,0,0.0,0.0,88,0.00,,,0.00,WUHU216HW,2013-01-21 16:49:00,
2013-01-21 08:54:00,37.8,34.6,29.82,North,0,0.0,0.0,88,0.00,,,0.00,WUHU216HW,2013-01-21 16:54:00,
2013-01-21 08:59:00,38.5,35.3,29.82,North,0,0.0,0.0,88,0.00,,,0.00,WUHU216HW,2013-01-21 16:59:00,
2013-01-21 09:04:00,39.1,35.5,29.82,North,0,0.0,0.0,87,0.00,,,0.00,WUHU216HW,2013-01-21 17:04:00,
2013-01-21 09:10:00,39.4,35.8,29.82,North,0,0.0,0.0,87,0.00,,,0.00,WUHU216HW,2013-01-21 17:10:00,
2013-01-21 09:15:00,40.0,36.4,29.82,North,0,0.0,0.0,87,0.00,,,0.00,WUHU216HW,2013-01-21 17:15:00,
2013-01-21 09:20:00,40.5,36.6,29.82,North,0,0.0,0.0,86,0.00,,,0.00,WUHU216HW,2013-01-21 17:20:00,
2013-01-21 09:25:00,41.0,37.1,29.82,North,0,0.0,0.0,86,0.00,,,0.00,WUHU216HW,2013-01-21 17:25:00,
2013-01-21 09:30:00,41.8,37.8,29.82,North,0,0.0,0.0,86,0.00,,,0.00,WUHU216HW,2013-01-21 17:30:00,
2013-01-21 09:35:00,42.5,38.5,29.82,North,0,0.0,0.0,86,0.00,,,0.00,WUHU216HW,2013-01-21 17:35:00,
2013-01-21 09:40:00,43.2,39.0,29.82,North,0,0.0,0.0,85,0.00,,,0.00,WUHU216HW,2013-01-21 17:40:00,
2013-01-21 09:45:00,43.6,39.3,29.83,North,0,0.0,0.0,85,0.00,,,0.00,WUHU216HW,2013-01-21 17:45:00,
2013-01-21 09:50:00,44.1,39.6,29.83,North,0,0.0,0.0,84,0.00,,,0.00,WUHU216HW,2013-01-21 17:50:00,
2013-01-21 09:55:00,44.8,40.0,29.83,North,0,0.0,0.0,83,0.00,,,0.00,WUHU216HW,2013-01-21 17:55:00,
2013-01-21 10:00:00,45.5,40.4,29.83,North,0,0.0,0.0,82,0.00,,,0.00,WUHU216HW,2013-01-21 18:00:00,
2013-01-21 10:05:00,45.7,40.6,29.83,North,0,0.0,0.0,82,0.00,,,0.00,WUHU216HW,2013-01-21 18:05:00,
2013-01-21 10:11:00,46.3,40.8,29.84,North,0,0.0,0.0,81,0.00,,,0.00,WUHU216HW,2013-01-21 18:11:00,
2013-01-21 10:16:00,46.6,41.1,29.84,North,0,0.0,0.0,81,0.00,,,0.00,WUHU216HW,2013-01-21 18:16:00,
2013-01-21 10:21:00,47.2,41.3,29.84,North,0,0.0,0.0,80,0.00,,,0.00,WUHU216HW,2013-01-21 18:21:00,
2013-01-21 10:26:00,47.5,41.7,29.84,North,0,0.0,0.0,80,0.00,,,0.00,WUHU216HW,2013-01-21 18:26:00,
2013-01-21 10:31:00,48.1,42.1,29.84,North,0,0.0,0.0,80,0.00,,,0.00,WUHU216HW,2013-01-21 18:31:00,
2013-01-21 10:36:00,48.8,42.5,29.84,North,0,0.0,0.0,79,0.00,,,0.00,WUHU216HW,2013-01-21 18:36:00,
2013-01-21 10:41:00,49.7,43.0,29.84,North,0,0.0,0.0,78,0.00,,,0.00,WUHU216HW,2013-01-21 18:41:00,
2013-01-21 10:46:00,50.4,43.5,29.84,North,0,0.0,0.0,77,0.00,,,0.00,WUHU216HW,2013-01-21 18:46:00,
2013-01-21 10:51:00,50.8,43.1,29.84,North,0,0.0,0.0,75,0.00,,,0.00,WUHU216HW,2013-01-21 18:51:00,
2013-01-21 10:56:00,51.3,43.7,29.84,North,0,0.0,0.0,75,0.00,,,0.00,WUHU216HW,2013-01-21 18:56:00,
2013-01-21 11:02:00,51.8,43.8,29.84,North,0,0.0,0.0,74,0.00,,,0.00,WUHU216HW,2013-01-21 19:02:00,
2013-01-21 11:07:00,52.2,43.5,29.83,North,0,0.0,0.0,72,0.00,,,0.00,WUHU216HW,2013-01-21 19:07:00,
2013-01-21 11:12:00,52.2,43.5,29.83,North,0,0.0,0.0,72,0.00,,,0.00,WUHU216HW,2013-01-21 19:12:00,
2013-01-21 11:17:00,52.9,44.2,29.83,North,0,0.0,0.0,72,0.00,,,0.00,WUHU216HW,2013-01-21 19:17:00,
2013-01-21 11:22:00,53.3,44.1,29.83,North,0,0.0,0.0,71,0.00,,,0.00,WUHU216HW,2013-01-21 19:22:00,
2013-01-21 11:27:00,54.0,45.2,29.82,North,0,0.0,0.0,72,0.00,,,0.00,WUHU216HW,2013-01-21 19:27:00,
2013-01-21 11:32:00,54.5,45.4,29.82,North,0,0.0,0.0,71,0.00,,,0.00,WUHU216HW,2013-01-21 19:32:00,
2013-01-21 11:37:00,55.1,45.1,29.82,North,0,0.0,0.0,69,0.00,,,0.00,WUHU216HW,2013-01-21 19:37:00,
2013-01-21 11:42:00,55.3,44.9,29.82,North,0,0.0,0.0,68,0.00,,,0.00,WUHU216HW,2013-01-21 19:42:00,
2013-01-21 11:47:00,55.1,44.3,29.82,North,0,0.0,0.0,67,0.00,,,0.00,WUHU216HW,2013-01-21 19:47:00,
2013-01-21 11:52:00,55.3,44.5,29.82,North,0,0.0,0.0,67,0.00,,,0.00,WUHU216HW,2013-01-21 19:52:00,
2013-01-21 11:57:00,55.4,44.3,29.81,North,0,0.0,0.0,66,0.00,,,0.00,WUHU216HW,2013-01-21 19:57:00,
2013-01-21 12:02:00,55.8,44.6,29.81,North,0,0.0,0.0,66,0.00,,,0.00,WUHU216HW,2013-01-21 20:02:00,
2013-01-21 12:08:00,56.2,44.6,29.80,North,0,0.0,0.0,65,0.00,,,0.00,WUHU216HW,2013-01-21 20:08:00,
2013-01-21 12:13:00,56.5,44.8,29.80,North,0,0.0,0.0,65,0.00,,,0.00,WUHU216HW,2013-01-21 20:13:00,
2013-01-21 12:18:00,56.5,44.5,29.80,North,0,0.0,0.0,64,0.00,,,0.00,WUHU216HW,2013-01-21 20:18:00,
2013-01-21 12:23:00,56.9,44.8,29.80,North,0,0.0,0.0,64,0.00,,,0.00,WUHU216HW,2013-01-21 20:23:00,
2013-01-21 12:28:00,57.1,44.6,29.80,North,0,0.0,0.0,63,0.00,,,0.00,WUHU216HW,2013-01-21 20:28:00,
2013-01-21 12:33:00,57.1,44.2,29.80,North,0,0.0,0.0,62,0.00,,,0.00,WUHU216HW,2013-01-21 20:33:00,
2013-01-21 12:38:00,57.2,44.4,29.80,North,0,0.0,0.0,62,0.00,,,0.00,WUHU216HW,2013-01-21 20:38:00,
2013-01-21 12:43:00,57.6,44.6,29.79,North,0,0.0,0.0,62,0.00,,,0.00,WUHU216HW,2013-01-21 20:43:00,
2013-01-21 12:48:00,57.8,44.8,29.79,North,0,0.0,0.0,62,0.00,,,0.00,WUHU216HW,2013-01-21 20:48:00,
2013-01-21 12:53:00,58.0,44.7,29.79,North,0,0.0,0.0,61,0.00,,,0.00,WUHU216HW,2013-01-21 20:53:00,
2013-01-21 12:58:00,58.1,44.4,29.79,North,0,0.0,0.0,60,0.00,,,0.00,WUHU216HW,2013-01-21 20:58:00,
2013-01-21 13:03:00,58.3,44.6,29.78,North,0,0.0,0.0,60,0.00,,,0.00,WUHU216HW,2013-01-21 21:03:00,
2013-01-21 13:08:00,58.5,44.2,29.79,North,0,0.0,0.0,59,0.00,,,0.00,WUHU216HW,2013-01-21 21:08:00,
2013-01-21 13:13:00,58.7,44.4,29.79,North,0,0.0,0.0,59,0.00,,,0.00,WUHU216HW,2013-01-21 21:13:00,
2013-01-21 13:19:00,59.0,45.2,29.79,North,0,0.0,0.0,60,0.00,,,0.00,WUHU216HW,2013-01-21 21:19:00,
2013-01-21 13:24:00,59.2,44.9,29.78,North,0,0.0,0.0,59,0.00,,,0.00,WUHU216HW,2013-01-21 21:24:00,
2013-01-21 13:29:00,59.8,45.5,29.78,North,0,0.0,0.0,59,0.00,,,0.00,WUHU216HW,2013-01-21 21:29:00,
2013-01-21 13:34:00,59.8,44.9,29.78,North,0,0.0,0.0,58,0.00,,,0.00,WUHU216HW,2013-01-21 21:34:00,
2013-01-21 13:39:00,59.9,44.2,29.78,North,0,0.0,0.0,56,0.00,,,0.00,WUHU216HW,2013-01-21 21:39:00,
2013-01-21 13:44:00,59.9,44.6,29.78,North,0,0.0,0.0,57,0.00,,,0.00,WUHU216HW,2013-01-21 21:44:00,
2013-01-21 13:49:00,59.9,44.6,29.78,North,0,0.0,0.0,57,0.00,,,0.00,WUHU216HW,2013-01-21 21:49:00,
2013-01-21 13:54:00,60.1,44.8,29.78,North,0,0.0,0.0,57,0.00,,,0.00,WUHU216HW,2013-01-21 21:54:00,
2013-01-21 13:59:00,60.3,44.6,29.77,North,0,0.0,0.0,56,0.00,,,0.00,WUHU216HW,2013-01-21 21:59:00,
2013-01-21 14:04:00,60.5,45.2,29.77,North,0,0.0,0.0,57,0.00,,,0.00,WUHU216HW,2013-01-21 22:04:00,
2013-01-21 14:09:00,60.8,45.0,29.77,North,0,0.0,0.0,56,0.00,,,0.00,WUHU216HW,2013-01-21 22:09:00,
2013-01-21 14:14:00,60.8,45.0,29.77,North,0,0.0,0.0,56,0.00,,,0.00,WUHU216HW,2013-01-21 22:14:00,
2013-01-21 14:20:00,60.7,44.4,29.77,North,0,0.0,0.0,55,0.00,,,0.00,WUHU216HW,2013-01-21 22:20:00,
2013-01-21 14:25:00,60.5,44.7,29.77,North,0,0.0,0.0,56,0.00,,,0.00,WUHU216HW,2013-01-21 22:25:00,
2013-01-21 14:30:00,60.5,44.7,29.77,North,0,0.0,0.0,56,0.00,,,0.00,WUHU216HW,2013-01-21 22:30:00,
2013-01-21 14:35:00,60.5,44.2,29.77,North,0,0.0,0.0,55,0.00,,,0.00,WUHU216HW,2013-01-21 22:35:00,
2013-01-21 14:40:00,60.5,44.2,29.77,North,0,0.0,0.0,55,0.00,,,0.00,WUHU216HW,2013-01-21 22:40:00,
2013-01-21 14:45:00,60.3,44.0,29.77,North,0,0.0,0.0,55,0.00,,,0.00,WUHU216HW,2013-01-21 22:45:00,
2013-01-21 14:50:00,60.3,44.0,29.77,North,0,0.0,0.0,55,0.00,,,0.00,WUHU216HW,2013-01-21 22:50:00,
2013-01-21 14:55:00,60.1,43.8,29.77,North,0,0.0,0.0,55,0.00,,,0.00,WUHU216HW,2013-01-21 22:55:00,
2013-01-21 15:00:00,60.1,43.8,29.77,North,0,0.0,0.0,55,0.00,,,0.00,WUHU216HW,2013-01-21 23:00:00,
2013-01-21 15:05:00,59.9,43.7,29.77,North,0,0.0,0.0,55,0.00,,,0.00,WUHU216HW,2013-01-21 23:05:00,
2013-01-21 15:10:00,59.9,43.7,29.77,North,0,0.0,0.0,55,0.00,,,0.00,WUHU216HW,2013-01-21 23:10:00,
2013-01-21 15:15:00,59.9,43.7,29.77,North,0,0.0,0.0,55,0.00,,,0.00,WUHU216HW,2013-01-21 23:15:00,
2013-01-21 15:21:00,60.1,43.8,29.76,North,0,0.0,0.0,55,0.00,,,0.00,WUHU216HW,2013-01-21 23:21:00,
2013-01-21 15:26:00,59.9,43.7,29.76,North,0,0.0,0.0,55,0.00,,,0.00,WUHU216HW,2013-01-21 23:26:00,
2013-01-21 15:31:00,59.8,43.6,29.76,North,0,0.0,0.0,55,0.00,,,0.00,WUHU216HW,2013-01-21 23:31:00,
2013-01-21 15:36:00,59.6,43.4,29.76,North,0,0.0,0.0,55,0.00,,,0.00,WUHU216HW,2013-01-21 23:36:00,
2013-01-21 15:41:00,59.6,43.4,29.76,North,0,0.0,0.0,55,0.00,,,0.00,WUHU216HW,2013-01-21 23:41:00,
2013-01-21 15:46:00,59.6,43.4,29.76,North,0,0.0,0.0,55,0.00,,,0.00,WUHU216HW,2013-01-21 23:46:00,
2013-01-21 15:51:00,59.4,43.2,29.76,North,0,0.0,0.0,55,0.00,,,0.00,WUHU216HW,2013-01-21 23:51:00,
2013-01-21 15:56:00,59.4,43.2,29.76,North,0,0.0,0.0,55,0.00,,,0.00,WUHU216HW,2013-01-21 23:56:00,
2013-01-21 16:01:00,59.2,43.0,29.76,North,0,0.0,0.0,55,0.00,,,0.00,WUHU216HW,2013-01-22 00:01:00,
2013-01-21 16:07:00,59.0,42.8,29.76,North,0,0.0,0.0,55,0.00,,,0.00,WUHU216HW,2013-01-22 00:07:00,
2013-01-21 16:12:00,58.9,42.7,29.76,North,0,0.0,0.0,55,0.00,,,0.00,WUHU216HW,2013-01-22 00:12:00,
2013-01-21 16:17:00,58.7,42.5,29.76,North,0,0.0,0.0,55,0.00,,,0.00,WUHU216HW,2013-01-22 00:17:00,
2013-01-21 16:22:00,58.5,42.4,29.76,North,0,0.0,0.0,55,0.00,,,0.00,WUHU216HW,2013-01-22 00:22:00,
2013-01-21 16:27:00,58.5,42.4,29.75,North,0,0.0,0.0,55,0.00,,,0.00,WUHU216HW,2013-01-22 00:27:00,
2013-01-21 16:32:00,58.3,42.2,29.76,North,0,0.0,0.0,55,0.00,,,0.00,WUHU216HW,2013-01-22 00:32:00,
2013-01-21 16:37:00,58.3,42.2,29.76,North,0,0.0,0.0,55,0.00,,,0.00,WUHU216HW,2013-01-22 00:37:00,
2013-01-21 16:42:00,58.1,42.0,29.76,North,0,0.0,0.0,55,0.00,,,0.00,WUHU216HW,2013-01-22 00:42:00,
2013-01-21 16:47:00,58.0,41.9,29.76,North,0,0.0,0.0,55,0.00,,,0.00,WUHU216HW,2013-01-22 00:47:00,
2013-01-21 16:52:00,57.6,41.0,29.75,North,0,0.0,0.0,54,0.00,,,0.00,WUHU216HW,2013-01-22 00:52:00,
2013-01-21 16:57:00,57.2,41.2,29.75,North,0,0.0,0.0,55,0.00,,,0.00,WUHU216HW,2013-01-22 00:57:00,
2013-01-21 17:03:00,57.1,41.0,29.75,North,0,0.0,0.0,55,0.00,,,0.00,WUHU216HW,2013-01-22 01:03:00,
2013-01-21 17:08:00,56.7,41.1,29.75,North,0,0.0,0.0,56,0.00,,,0.00,WUHU216HW,2013-01-22 01:08:00,
2013-01-21 17:13:00,56.3,40.8,29.74,North,0,0.0,0.0,56,0.00,,,0.00,WUHU216HW,2013-01-22 01:13:00,
2013-01-21 17:18:00,55.8,40.2,29.74,North,0,0.0,0.0,56,0.00,,,0.00,WUHU216HW,2013-01-22 01:18:00,
2013-01-21 17:23:00,55.4,40.3,29.74,North,0,0.0,0.0,57,0.00,,,0.00,WUHU216HW,2013-01-22 01:23:00,
2013-01-21 17:28:00,55.1,40.1,29.74,North,0,0.0,0.0,57,0.00,,,0.00,WUHU216HW,2013-01-22 01:28:00,
2013-01-21 17:33:00,54.7,40.1,29.74,North,0,0.0,0.0,58,0.00,,,0.00,WUHU216HW,2013-01-22 01:33:00,
2013-01-21 17:38:00,54.4,39.9,29.74,North,0,0.0,0.0,58,0.00,,,0.00,WUHU216HW,2013-01-22 01:38:00,
2013-01-21 17:43:00,54.0,40.0,29.74,North,0,0.0,0.0,59,0.00,,,0.00,WUHU216HW,2013-01-22 01:43:00,
2013-01-21 17:49:00,53.6,39.7,29.74,North,0,0.0,0.0,59,0.00,,,0.00,WUHU216HW,2013-01-22 01:49:00,
2013-01-21 17:54:00,53.5,39.5,29.75,North,0,0.0,0.0,59,0.00,,,0.00,WUHU216HW,2013-01-22 01:54:00,
2013-01-21 17:59:00,53.1,39.6,29.75,North,0,0.0,0.0,60,0.00,,,0.00,WUHU216HW,2013-01-22 01:59:00,
2013-01-21 18:04:00,52.7,39.2,29.75,North,0,0.0,0.0,60,0.00,,,0.00,WUHU216HW,2013-01-22 02:04:00,
2013-01-21 18:09:00,52.2,38.7,29.74,North,0,0.0,0.0,60,0.00,,,0.00,WUHU216HW,2013-01-22 02:09:00,
2013-01-21 18:14:00,51.8,38.8,29.75,North,0,0.0,0.0,61,0.00,,,0.00,WUHU216HW,2013-01-22 02:14:00,
2013-01-21 18:19:00,51.5,38.4,29.75,North,0,0.0,0.0,61,0.00,,,0.00,WUHU216HW,2013-01-22 02:19:00,
2013-01-21 18:24:00,51.1,38.5,29.75,North,0,0.0,0.0,62,0.00,,,0.00,WUHU216HW,2013-01-22 02:24:00,
2013-01-21 18:29:00,50.8,38.2,29.75,North,0,0.0,0.0,62,0.00,,,0.00,WUHU216HW,2013-01-22 02:29:00,
2013-01-21 18:34:00,50.6,38.4,29.75,North,0,0.0,0.0,63,0.00,,,0.00,WUHU216HW,2013-01-22 02:34:00,
2013-01-21 18:39:00,50.2,38.1,29.75,North,0,0.0,0.0,63,0.00,,,0.00,WUHU216HW,2013-01-22 02:39:00,
2013-01-21 18:45:00,49.9,38.2,29.75,North,0,0.0,0.0,64,0.00,,,0.00,WUHU216HW,2013-01-22 02:45:00,
2013-01-21 18:50:00,49.7,38.0,29.75,North,0,0.0,0.0,64,0.00,,,0.00,WUHU216HW,2013-01-22 02:50:00,
2013-01-21 18:55:00,49.3,37.6,29.75,North,0,0.0,0.0,64,0.00,,,0.00,WUHU216HW,2013-01-22 02:55:00,
2013-01-21 19:00:00,49.3,37.6,29.75,North,0,0.0,0.0,64,0.00,,,0.00,WUHU216HW,2013-01-22 03:00:00,
2013-01-21 19:05:00,49.0,37.3,29.75,North,0,0.0,0.0,64,0.00,,,0.00,WUHU216HW,2013-01-22 03:05:00,
2013-01-21 19:10:00,48.8,37.1,29.75,North,0,0.0,0.0,64,0.00,,,0.00,WUHU216HW,2013-01-22 03:10:00,
2013-01-21 19:15:00,48.4,37.2,29.75,North,0,0.0,0.0,65,0.00,,,0.00,WUHU216HW,2013-01-22 03:15:00,
2013-01-21 19:20:00,48.2,37.0,29.75,North,0,0.0,0.0,65,0.00,,,0.00,WUHU216HW,2013-01-22 03:20:00,
2013-01-21 19:25:00,47.9,37.0,29.75,North,0,0.0,0.0,66,0.00,,,0.00,WUHU216HW,2013-01-22 03:25:00,
2013-01-21 19:30:00,47.5,36.7,29.75,North,0,0.0,0.0,66,0.00,,,0.00,WUHU216HW,2013-01-22 03:30:00,
2013-01-21 19:35:00,47.3,36.6,29.75,North,0,0.0,0.0,66,0.00,,,0.00,WUHU216HW,2013-01-22 03:35:00,
2013-01-21 19:40:00,47.0,36.5,29.74,North,0,0.0,0.0,67,0.00,,,0.00,WUHU216HW,2013-01-22 03:40:00,
2013-01-21 19:45:00,46.8,36.5,29.74,North,0,0.0,0.0,67,0.00,,,0.00,WUHU216HW,2013-01-22 03:45:00,
2013-01-21 19:51:00,46.6,36.6,29.74,North,0,0.0,0.0,68,0.00,,,0.00,WUHU216HW,2013-01-22 03:51:00,
2013-01-21 19:56:00,46.4,36.5,29.74,North,0,0.0,0.0,68,0.00,,,0.00,WUHU216HW,2013-01-22 03:56:00,
2013-01-21 20:01:00,46.3,36.3,29.75,North,0,0.0,0.0,68,0.00,,,0.00,WUHU216HW,2013-01-22 04:01:00,
2013-01-21 20:06:00,45.9,35.9,29.75,North,0,0.0,0.0,68,0.00,,,0.00,WUHU216HW,2013-01-22 04:06:00,
2013-01-21 20:11:00,45.7,36.2,29.75,North,0,0.0,0.0,69,0.00,,,0.00,WUHU216HW,2013-01-22 04:11:00,
2013-01-21 20:16:00,45.7,36.2,29.75,North,0,0.0,0.0,69,0.00,,,0.00,WUHU216HW,2013-01-22 04:16:00,
2013-01-21 20:21:00,45.7,36.2,29.75,North,0,0.0,0.0,69,0.00,,,0.00,WUHU216HW,2013-01-22 04:21:00,
2013-01-21 20:26:00,45.5,36.4,29.75,North,0,0.0,0.0,70,0.00,,,0.00,WUHU216HW,2013-01-22 04:26:00,
2013-01-21 20:31:00,45.4,36.2,29.76,North,0,0.0,0.0,70,0.00,,,0.00,WUHU216HW,2013-01-22 04:31:00,
2013-01-21 20:36:00,45.0,35.8,29.76,North,0,0.0,0.0,70,0.00,,,0.00,WUHU216HW,2013-01-22 04:36:00,
2013-01-21 20:41:00,44.6,35.5,29.76,North,0,0.0,0.0,70,0.00,,,0.00,WUHU216HW,2013-01-22 04:41:00,
2013-01-21 20:46:00,44.5,35.7,29.76,North,0,0.0,0.0,71,0.00,,,0.00,WUHU216HW,2013-01-22 04:46:00,
2013-01-21 20:52:00,44.3,35.5,29.77,North,0,0.0,0.0,71,0.00,,,0.00,WUHU216HW,2013-01-22 04:52:00,
2013-01-21 20:57:00,44.1,35.3,29.76,North,0,0.0,0.0,71,0.00,,,0.00,WUHU216HW,2013-01-22 04:57:00,
2013-01-21 21:00:00,43.9,35.5,29.76,North,0,0.0,0.0,72,0.00,,,0.00,WUHU216HW,2013-01-22 05:00:00,
2013-01-21 21:01:00,43.9,35.5,29.76,North,0,0.0,0.0,72,0.00,,,0.00,WUHU216HW,2013-01-22 05:01:00,
2013-01-21 21:06:00,43.7,35.0,29.77,North,0,0.0,0.0,71,0.00,,,0.00,WUHU216HW,2013-01-22 05:06:00,
2013-01-21 21:11:00,43.6,34.8,29.76,North,0,0.0,0.0,71,0.00,,,0.00,WUHU216HW,2013-01-22 05:11:00,
2013-01-21 21:16:00,43.4,34.7,29.77,North,0,0.0,0.0,71,0.00,,,0.00,WUHU216HW,2013-01-22 05:16:00,
2013-01-21 21:21:00,43.2,34.8,29.77,North,0,0.0,0.0,72,0.00,,,0.00,WUHU216HW,2013-01-22 05:21:00,
2013-01-21 21:26:00,43.0,34.7,29.77,North,0,0.0,0.0,72,0.00,,,0.00,WUHU216HW,2013-01-22 05:26:00,
2013-01-21 21:31:00,42.8,34.5,29.77,North,0,0.0,0.0,72,0.00,,,0.00,WUHU216HW,2013-01-22 05:31:00,
2013-01-21 21:36:00,42.8,34.8,29.78,North,0,0.0,0.0,73,0.00,,,0.00,WUHU216HW,2013-01-22 05:36:00,
2013-01-21 21:41:00,42.7,34.7,29.78,North,0,0.0,0.0,73,0.00,,,0.00,WUHU216HW,2013-01-22 05:41:00,
2013-01-21 21:46:00,42.5,34.5,29.78,North,0,0.0,0.0,73,0.00,,,0.00,WUHU216HW,2013-01-22 05:46:00,
2013-01-21 21:51:00,42.1,34.1,29.78,North,0,0.0,0.0,73,0.00,,,0.00,WUHU216HW,2013-01-22 05:51:00,
2013-01-21 21:56:00,42.1,34.1,29.78,North,0,0.0,0.0,73,0.00,,,0.00,WUHU216HW,2013-01-22 05:56:00,
2013-01-21 22:02:00,41.8,34.0,29.78,North,0,0.0,0.0,74,0.00,,,0.00,WUHU216HW,2013-01-22 06:02:00,
2013-01-21 22:07:00,41.8,34.0,29.78,North,0,0.0,0.0,74,0.00,,,0.00,WUHU216HW,2013-01-22 06:07:00,
2013-01-21 22:12:00,41.4,33.7,29.78,North,0,0.0,0.0,74,0.00,,,0.00,WUHU216HW,2013-01-22 06:12:00,
2013-01-21 22:17:00,41.4,34.0,29.78,North,0,0.0,0.0,75,0.00,,,0.00,WUHU216HW,2013-01-22 06:17:00,
2013-01-21 22:22:00,41.2,33.8,29.78,North,0,0.0,0.0,75,0.00,,,0.00,WUHU216HW,2013-01-22 06:22:00,
2013-01-21 22:27:00,41.0,33.7,29.78,North,0,0.0,0.0,75,0.00,,,0.00,WUHU216HW,2013-01-22 06:27:00,
2013-01-21 22:32:00,41.0,33.7,29.78,North,0,0.0,0.0,75,0.00,,,0.00,WUHU216HW,2013-01-22 06:32:00,
2013-01-21 22:37:00,40.9,33.5,29.78,North,0,0.0,0.0,75,0.00,,,0.00,WUHU216HW,2013-01-22 06:37:00,
2013-01-21 22:42:00,40.9,33.9,29.78,North,0,0.0,0.0,76,0.00,,,0.00,WUHU216HW,2013-01-22 06:42:00,
2013-01-21 22:47:00,41.0,34.0,29.78,North,0,0.0,0.0,76,0.00,,,0.00,WUHU216HW,2013-01-22 06:47:00,
2013-01-21 22:52:00,41.0,34.3,29.78,North,0,0.0,0.0,77,0.00,,,0.00,WUHU216HW,2013-01-22 06:52:00,
2013-01-21 22:57:00,41.0,34.3,29.78,North,0,0.0,0.0,77,0.00,,,0.00,WUHU216HW,2013-01-22 06:57:00,
2013-01-21 23:02:00,41.0,34.0,29.78,North,0,0.0,0.0,76,0.00,,,0.00,WUHU216HW,2013-01-22 07:02:00,
2013-01-21 23:07:00,40.9,34.1,29.78,North,0,0.0,0.0,77,0.00,,,0.00,WUHU216HW,2013-01-22 07:07:00,
2013-01-21 23:12:00,40.9,34.1,29.78,North,0,0.0,0.0,77,0.00,,,0.00,WUHU216HW,2013-01-22 07:12:00,
2013-01-21 23:17:00,40.7,33.9,29.78,North,0,0.0,0.0,77,0.00,,,0.00,WUHU216HW,2013-01-22 07:17:00,
2013-01-21 23:22:00,40.7,33.9,29.78,North,0,0.0,0.0,77,0.00,,,0.00,WUHU216HW,2013-01-22 07:22:00,
2013-01-21 23:28:00,40.5,33.9,29.78,North,0,0.0,0.0,77,0.00,,,0.00,WUHU216HW,2013-01-22 07:28:00,
2013-01-21 23:33:00,40.3,33.7,29.78,North,0,0.0,0.0,77,0.00,,,0.00,WUHU216HW,2013-01-22 07:33:00,
2013-01-21 23:38:00,40.1,33.5,29.78,North,0,0.0,0.0,77,0.00,,,0.00,WUHU216HW,2013-01-22 07:38:00,
2013-01-21 23:43:00,40.1,33.5,29.78,North,0,0.0,0.0,77,0.00,,,0.00,WUHU216HW,2013-01-22 07:43:00,
2013-01-21 23:48:00,40.0,33.3,29.78,North,0,0.0,0.0,77,0.00,,,0.00,WUHU216HW,2013-01-22 07:48:00,
2013-01-21 23:53:00,40.0,33.7,29.77,North,0,0.0,0.0,78,0.00,,,0.00,WUHU216HW,2013-01-22 07:53:00,
2013-01-21 23:58:00,40.0,33.7,29.77,North,0,0.0,0.0,78,0.00,,,0.00,WUHU216HW,2013-01-22 07:58:00,